Location: Unspecified
(0.0000°N, 0.0000°E)
Time: 18:57:43
(UTC+00:00)

Amsat-Oscar-6 - Pass Details

Date: 05 May 2019
Orbit: 1448 x 1455 km, 101.8° (Epoch: 25 May)

Event Time Altitude Azimuth Distance (km) Brightness Sun altitude
Rises 02:01:33 0° 44° (NE) 4,537 ? -55.3°
Reaches altitude 10° 02:05:01 10° 57° (ENE) 3,563 ? -54.5°
Enters shadow 02:09:04 22° 85° (E) 2,768 ? -53.6°
